FW9225 Weather Reports


time (UTC)temp
C
wind
direction
speed
KPH
gust
KPH
rain 1hr
cm
rain 24hr
cm
rain mn
cm
humidity
%
barometer
mb
20260505081543 14 0 1.6 8.0 0.00 0.00 0.00 74 1010.3
20260505080045 14 0 0.0 9.7 0.00 0.00 0.00 74 1010.2
20260505074538 14 115 0.0 9.7 0.00 0.00 0.00 74 1010.1
20260505073050 14 117 0.0 9.7 0.00 0.00 0.00 73 1010.2
20260505071554 14 117 0.0 8.0 0.00 0.00 0.00 72 1010.2
20260505070045 14 0 0.0 6.4 0.00 0.00 0.00 72 1010.2
20260505064543 14 127 1.6 6.4 0.00 0.00 0.00 72 1010.2
20260505063040 14 114 0.0 3.2 0.00 0.00 0.00 71 1010.2
20260505061550 14 0 3.2 9.7 0.00 0.00 0.00 71 1010.3
20260505060051 14 0 0.0 3.2 0.00 0.00 0.00 71 1010.2
20260505054546 13 0 0.0 1.6 0.00 0.00 0.00 70 1010.3
20260505053042 14 0 0.0 3.2 0.00 0.00 0.00 69 1010.4
20260505051544 14 0 0.0 1.6 0.00 0.00 0.00 67 1010.3
20260505041540 15 143 0.0 6.4 0.00 0.00 0.00 61 1010.2
20260505040041 16 0 1.6 11.3 0.00 0.00 0.00 59 1010.1
20260505034542 16 0 0.0 3.2 0.00 0.00 0.00 58 1010.1
20260505033042 16 117 0.0 11.3 0.00 0.00 0.00 56 1010.2
20260505031541 16 0 0.0 9.7 0.00 0.00 0.00 55 1010.3
20260505030040 16 0 0.0 8.0 0.00 0.00 0.00 54 1010.3
20260505024544 16 0 0.0 1.6 0.00 0.00 0.00 53 1010.2
20260505023045 17 0 0.0 8.0 0.00 0.00 0.00 52 1010.4
20260505021542 17 120 0.0 9.7 0.00 0.00 0.00 51 1010.5
20260505020046 17 0 0.0 6.4 0.00 0.00 0.00 52 1010.6
20260505014540 16 0 0.0 1.6 0.00 0.00 0.00 52 1010.5
20260505013059 17 0 0.0 1.6 0.00 0.00 0.00 50 1010.3
20260505011543 17 0 3.2 9.7 0.00 0.00 0.00 49 1010.2
20260505010043 17 0 0.0 4.8 0.00 0.00 0.00 49 1010.1
20260505004541 18 0 0.0 4.8 0.00 0.00 0.00 48 1009.9
20260505003039 18 114 0.0 4.8 0.00 0.00 0.00 47 1009.7
20260505001544 18 0 0.0 9.7 0.00 0.00 0.00 46 1009.6
20260505000050 19 0 1.6 9.7 0.00 0.00 0.00 44 1009.6
20260504234538 20 117 0.0 6.4 0.00 0.00 0.00 43 1009.5
20260504233041 21 94 4.8 14.5 0.00 0.00 0.00 41 1009.6
20260504231535 21 113 6.4 17.7 0.00 0.00 0.00 41 1009.6
20260504230037 22 345 6.4 12.9 0.00 0.00 0.00 39 1009.5
20260504224543 22 345 3.2 12.9 0.00 0.00 0.00 38 1009.6
20260504223050 22 345 4.8 16.1 0.00 0.00 0.00 38 1009.4
20260504221541 22 345 4.8 19.3 0.00 0.00 0.00 37 1009.5
20260504220042 23 58 3.2 16.1 0.00 0.00 0.00 37 1009.5
20260504214542 22 124 0.0 22.5 0.00 0.00 0.00 39 1009.6
20260504213044 22 113 4.8 16.1 0.00 0.00 0.00 40 1009.8
20260504211552 22 109 8.0 24.1 0.00 0.00 0.00 37 1009.7
20260504210044 22 114 6.4 16.1 0.00 0.00 0.00 38 1009.7
20260504204538 22 119 4.8 17.7 0.00 0.00 0.00 40 1009.7
20260504203037 22 98 4.8 17.7 0.00 0.00 0.00 39 1010.0
20260504201558 21 105 6.4 20.9 0.00 0.00 0.00 39 1010.0
20260504200045 21 112 8.0 19.3 0.00 0.00 0.00 40 1010.2
20260504194547 21 126 8.0 20.9 0.00 0.00 0.00 39 1010.3
20260504193039 21 113 1.6 17.7 0.00 0.00 0.00 39 1010.4
20260504191543 21 122 4.8 19.3 0.00 0.00 0.00 40 1010.6
20260504190047 21 89 4.8 16.1 0.00 0.00 0.00 38 1010.8
20260504184557 21 113 4.8 19.3 0.00 0.00 0.00 40 1011.0
20260504183042 20 111 6.4 19.3 0.00 0.00 0.00 39 1011.1
20260504181541 20 44 6.4 17.7 0.00 0.00 0.00 41 1011.4
20260504180042 20 113 12.9 24.1 0.00 0.00 0.00 41 1011.6
20260504174545 20 65 8.0 20.9 0.00 0.00 0.00 41 1011.7
20260504173041 20 93 6.4 17.7 0.00 0.00 0.00 44 1011.8
20260504171540 20 101 4.8 19.3 0.00 0.00 0.00 44 1012.1